Airfield :
LOGIN :

Register | Disclaimer

   EN    FR    IT 

 










Legend :    VFR   Marginal VFR   IFR   Intensive IFR   Very Intensive IFR
Visi :
Ceiling :
>= 8 km
>= 3000ft
5 to 8 km
1000 to 3000 ft
1500m to 5 km
500 to 1000 ft
800 to 1500m
200 to 500 ft
< 800m
< 200 ft
Symbols :   Thunderstorms  Fog  Heavy snow  Heavy precipitations  Wind > 20 kt
SIGMETs :     Misc.  Thunderstorms  Icing  Turbulence  Mountain Waves  Volcanic Ashes







- Airport Elevation : 915 ft
- IATA code : LUG


LSZA - Lugano

CURRENT METAR :
  • 191820Z VRB03KT 6000 NSC 07/02 Q1022 NOSIG

EXPIRED METARs :
  • 191750Z VRB01KT 6000 NSC 08/02 Q1022 NOSIG
  • 191720Z VRB03KT 6000 NSC 08/02 Q1022 NOSIG
  • 191650Z 20006KT 6000 NSC 09/02 Q1022 NOSIG
  • 191620Z 20006KT 6000 NSC 10/02 Q1021 NOSIG
  • 191550Z 21008KT 6000 NSC 10/02 Q1021 NOSIG

TAF TAF LSZA
Valid from the 19 at 15:00 until the 20 at 00:00 UTC


191425Z 1915/1924 VRB03KT 8000 NSC
ATIS : +41 22 417 40 88
No reported NOTAMs for that airfield.



MET'MAP, your aeronautical weather chart ! - Copyright ORBIFLY December 2007 - Disclaimer

ORBIFLY MET'MAP TEAM :

Programming & Development : Alexandra Zaïnal
Concept & Development : Baudouin d'Aumeries
Co-Development & Prog : Marc-Olivier Méhu
Technical & hardware support : Manuel Goepfert

Contact : metmap@orbifly.com




SOURCES & CREDITS :

   NOAA